STARLINK-33998, 63951

Orbit data source: Space-Track

STARLINK-33998, 63951 is a payload satellite owned by SpaceX/Seattle (US) in LEO that was launched on Tue, 13 May 2025 UTC via an FALCON 9 launch vehicle from the Air Force Western Test Range (AFWTR). Payload-class satellites include a variety of spacecraft equipped with specific instruments for various scientific and technological missions. These include communications satellites like Starlink; space stations such as the ISS; scientific satellites like the Hubble; Earth observation satellites from companies like Planet Labs, Umbra, and HawkEye 360; GPS; miniature CubeSats for education and research; and military/defense satellites.

Loading next visibility...
Identifier
63951, 2025-098AB
Orbit
LEO
Country
Flag of USUS
Related business
Manufacturer
SpaceX/Seattle
Mission
Operational Commercial Communications
Bus & Motor
STARLINK V2MO, Unknown motor
Mass
575 kg wet, ~530 kg dry
Launch date (UTC)
2025-05-13 (7 months ago)
Launch vehicle
FALCON 9
Launch site
Air Force Western Test Range (AFWTR)
Object type
Payload
Rocket body
Debris
Shape & HBR
Box + 2 Pan, 17.7 m
Radar Cross Section
36.964 m², Large (>1 m²)

Expand to show TLE details & history
Last TLE update: 19 hours ago

TLE from 19 hours ago
0 STARLINK-33998
1 63951U 25098AB  25348.83259272  .00003306  00000-0  28470-3 0  9994
2 63951  70.0013 128.3308 0003094 270.1172  89.9633 14.98332590 33848
Epoch: 2025-12-14T19:58Z
TLE epoch observation values (Epoch: 2025-12-14T19:58:56.011Z)
Latitude
0.00005°
Longitude
104.85759°
Altitude
574.471 km
Speed
7.574 km/s
True Right ascension
08h 33m 19s
True Declination
0° 00' 00"
Sunlit
Object was in full shadow at epoch
Visualization orbit readout
Latitude
Unknown
Longitude
Unknown
Altitude
Unknown
Speed
Unknown
Apparent Right ascension
Unknown
Apparent Declination
Unknown
Sunlit
N/A
Visualization observer readout
Local Sidereal Time
13:25:43
Azimuth
Unknown
Elevation
Unknown
Doppler factor
Unknown
Orbital elements
Apogee altitude
572.146 km
Perigee altitude
567.846 km
Semi-major axis
6,948.133 km
Eccentricity
0.00031
Inclination
70.0013°
RAAN
128.3308°
Arg. of periapsis
270.1172°
True anomaly
89.99875°
Mean anomaly
89.9633°
Eccentric anomaly
89.98103°
Mean motion
3.74749 °/min
Orbital period
96.06 mins
BSTAR
0.0002847
Loading maneuver chart data...
Computing Atmospheric mass density...
Loading historical data...
Loading historical data...
Loading historical data...
Loading historical data...
Loading historical data...
Loading historical data...
Loading historical data...

Documentation

Showing up to 5 results
|